Cloud_Cover
48 44 36 20 20 12 12 8 0 8 8 12 12 12 12 20 32 36 36 44 36 32 24 24 20 20 12 12 12 12 12 12 32 64 88 80 92 92 92 88 80 76 76 88 88 92 88 68 88 92 92 92 88 56 20 8 12 12 20 20 44 56 68 76 80 88 88 88 88
64 56 44 20 12 12 12 12 8 8 8 20 24 24 24 24 32 36 36 44 36 36 32 24 20 20 12 12 12 12 12 20 64 88 92 88 92 92 88 68 64 64 64 80 92 92 92 92 80 88 92 92 92 92 68 20 20 20 24 24 56 76 80 88 92 92 92 88 88
76 68 48 32 24 20 20 20 8 8 12 20 24 32 36 36 36 44 44 36 36 36 36 24 24 20 12 12 12 8 12 36 56 80 92 92 92 88 68 48 48 48 56 80 92 92 92 92 80 88 92 92 92 92 80 36 36 44 48 56 80 92 92 92 92 92 92 88 92
80 76 64 44 36 32 24 20 12 12 12 12 24 32 36 44 44 48 48 44 44 44 36 32 24 20 12 12 8 8 8 20 48 80 92 92 88 76 64 44 44 44 56 88 88 92 92 92 92 92 88 88 92 92 92 88 68 68 80 88 92 92 92 92 92 92 92 92 92
88 80 68 56 44 36 32 24 20 12 12 20 20 32 36 44 48 48 56 48 48 44 36 32 24 20 12 12 8 8 20 48 76 88 92 92 88 88 80 68 76 80 80 88 92 92 92 92 92 92 92 92 92 92 92 92 80 88 92 92 92 92 92 92 92 92 92 92 92
92 88 80 64 48 36 32 24 24 20 12 20 20 24 36 48 48 56 56 56 48 44 36 24 20 20 20 12 12 12 20 36 64 80 92 92 80 76 76 92 92 92 88 92 92 92 92 92 92 92 92 92 92 92 92 92 80 88 92 92 92 92 92 92 92 92 92 92 92
92 88 80 68 48 44 32 24 20 20 12 20 20 24 36 44 48 48 48 48 44 44 36 24 24 24 20 20 20 20 24 44 48 64 80 88 92 88 80 92 92 92 92 92 92 92 92 92 92 92 92 92 92 92 92 92 80 88 92 92 92 92 92 92 92 92 92 92 92
88 88 88 76 56 44 32 24 20 20 24 20 24 32 36 44 48 44 44 36 36 32 32 32 32 32 32 24 24 24 32 44 64 68 76 64 88 92 92 92 92 92 92 92 92 92 92 92 92 92 92 92 92 92 92 92 88 88 88 92 92 92 92 92 92 92 92 92 92
88 88 88 76 64 48 36 32 32 36 36 36 32 36 36 44 44 44 36 32 24 24 24 24 32 36 36 36 36 44 48 56 64 80 88 68 88 92 92 92 92 92 92 92 92 92 92 92 92 92 92 92 92 92 92 92 92 88 88 92 92 92 92 92 92 92 92 92 92
80 80 80 80 76 68 64 48 48 44 36 32 32 36 44 48 44 36 32 24 24 20 20 20 24 32 32 36 44 48 56 64 68 76 80 92 92 92 92 92 92 92 92 92 92 92 92 92 92 92 92 92 92 92 92 92 92 92 92 92 92 92 92 92 88 92 92 92 92
76 76 80 76 76 76 80 80 76 64 44 44 44 44 48 44 36 32 24 20 20 20 20 24 20 20 24 32 44 44 44 56 68 76 80 92 92 92 92 92 92 92 92 92 92 92 92 92 92 92 92 92 92 92 92 92 92 92 92 92 92 92 88 88 92 92 92 92 92
68 76 76 76 80 80 80 88 88 80 68 68 64 64 56 56 44 32 20 12 20 20 32 56 32 24 24 36 76 64 44 48 80 92 92 92 92 92 92 92 92 92 92 92 92 92 92 92 92 92 92 92 92 92 92 92 92 92 92 92 92 88 88 88 92 92 92 88 88
68 68 76 76 80 88 92 92 92 92 88 76 76 76 68 64 44 32 20 12 12 24 36 48 36 36 48 76 88 76 64 68 88 92 92 92 92 92 92 92 92 92 92 92 92 92 92 92 88 88 92 92 92 92 92 92 92 92 88 88 80 80 88 92 92 88 80 76 76
68 68 68 76 92 92 92 92 92 92 88 80 80 80 76 68 56 44 32 36 32 24 24 24 32 56 88 92 92 88 80 92 92 92 92 92 92 92 92 92 92 92 92 92 92 92 92 92 92 92 92 92 92 92 92 92 92 92 88 88 92 92 92 92 92 80 68 64 56
56 64 76 88 92 92 92 92 92 92 88 80 80 80 80 76 76 64 56 76 64 44 32 36 56 80 92 92 92 92 92 92 92 92 92 92 92 92 92 92 92 92 92 92 92 92 92 92 92 92 92 92 92 92 92 92 92 92 92 92 92 92 88 80 80 76 64 48 44
48 48 68 88 92 92 92 92 92 92 88 80 80 80 80 80 80 80 80 80 76 68 68 76 88 92 92 92 92 92 92 92 92 92 92 92 92 92 92 92 92 92 92 92 92 92 92 92 92 92 92 92 92 92 92 92 92 92 92 92 88 80 80 76 76 68 56 56 44
56 56 68 92 92 92 92 92 92 92 88 80 80 80 80 80 80 80 80 88 80 88 92 92 92 92 92 92 92 92 92 92 92 92 92 92 92 92 92 92 92 92 92 92 92 92 92 92 92 92 92 92 92 92 92 92 92 88 88 80 80 80 80 76 68 68 56 44 44
76 76 88 92 92 92 92 92 92 92 88 80 80 80 80 80 80 80 88 88 88 92 92 92 92 92 92 92 92 92 92 92 92 92 92 92 92 92 92 92 92 92 92 92 92 92 92 92 92 92 92 92 92 92 88 88 80 80 80 80 88 88 80 76 64 48 44 48 56
80 80 88 92 92 92 92 92 92 88 80 80 80 80 80 80 88 88 88 92 92 92 92 92 92 92 92 92 92 92 92 92 92 92 92 92 92 92 92 92 92 92 92 92 92 92 92 92 92 92 92 92 88 88 80 80 80 88 88 92 88 80 76 64 44 44 48 64 68
76 80 92 92 80 80 80 80 80 80 76 76 76 80 80 80 88 88 92 92 92 92 92 92 92 92 92 92 92 92 92 92 92 92 92 92 92 92 92 92 92 92 92 92 92 92 92 92 92 92 88 92 80 80 80 88 88 88 88 88 80 80 76 56 48 56 64 68 76
68 80 92 80 68 64 64 68 68 76 80 80 80 80 80 92 92 92 92 92 92 92 92 92 92 92 92 92 92 92 92 92 92 92 92 92 92 92 92 92 92 92 92 92 92 92 92 92 92 88 80 88 80 88 88 88 88 80 80 76 80 68 64 56 64 64 68 80 80
68 88 92 76 64 48 48 64 68 80 88 88 88 88 92 92 92 92 92 92 92 92 92 92 92 92 92 92 92 92 92 92 92 92 92 92 92 92 92 92 92 92 92 92 92 92 88 88 80 80 80 80 80 88 88 80 80 76 68 76 76 68 64 68 68 76 76 88 76
76 92 92 76 64 56 48 56 76 88 88 88 92 92 92 92 92 92 92 92 92 92 92 92 92 92 92 92 92 92 92 92 92 92 92 92 92 92 92 92 92 92 92 92 88 80 76 76 76 76 76 76 76 80 76 68 64 64 68 80 80 76 76 80 76 76 80 76 64
80 92 92 76 64 48 48 48 68 80 88 92 92 92 92 92 92 92 92 92 92 92 92 92 92 92 92 92 92 88 80 80 88 92 92 92 92 92 92 92 92 92 92 88 80 76 76 68 76 76 76 76 76 64 56 48 64 68 76 80 76 76 76 80 80 80 68 64 48
92 92 88 68 56 48 48 48 68 80 92 92 92 92 92 92 92 92 92 92 92 92 92 92 92 92 92 92 92 92 92 92 80 80 88 92 92 92 92 92 92 92 88 88 68 68 68 64 68 68 68 56 56 56 56 64 76 76 80 80 76 76 76 76 76 68 56 48 44
92 88 76 64 56 48 48 56 64 80 92 92 92 92 92 92 92 92 92 92 92 92 92 92 92 92 92 92 92 92 92 92 92 88 88 92 92 92 92 92 92 92 88 92 76 68 56 56 64 56 48 36 48 56 64 68 68 76 76 68 68 68 68 76 68 56 48 44 48
92 88 76 68 64 76 88 92 92 92 92 92 92 92 92 92 92 92 92 92 92 92 92 92 92 92 92 92 92 92 92 92 92 92 92 92 92 92 92 92 92 92 92 92 92 80 68 64 48 36 36 44 48 56 64 64 68 64 64 68 68 68 76 76 64 56 48 64 56
88 88 80 76 80 92 92 92 92 92 92 92 92 92 92 92 92 92 92 92 92 92 92 92 92 92 92 92 92 92 92 92 92 92 92 92 92 92 92 92 92 92 92 92 92 88 76 56 56 56 48 44 48 56 64 64 64 64 68 68 68 68 68 68 64 64 68 68 68
80 80 76 80 92 92 92 92 92 92 92 92 92 92 92 92 92 92 92 92 92 92 92 92 92 92 92 92 92 92 92 92 92 92 92 92 92 92 92 88 92 92 92 92 88 80 68 48 44 44 48 48 48 56 56 56 64 64 64 64 68 68 64 64 48 56 56 48 44
80 80 88 92 92 92 92 92 92 92 92 92 92 92 92 92 92 92 92 92 92 92 92 92 92 92 92 92 92 92 92 92 92 92 92 92 92 92 92 92 92 92 92 92 80 68 68 64 56 56 56 56 56 56 56 56 56 56 56 48 64 64 56 48 48 48 48 44 32
92 92 92 92 92 92 92 92 92 92 92 92 92 92 92 92 92 92 92 92 92 92 92 92 92 92 92 92 92 92 92 92 92 92 92 92 92 92 92 92 92 92 92 88 80 68 64 64 56 64 64 64 64 64 64 64 56 56 56 56 56 48 48 48 48 48 36 32 44
92 92 92 92 92 92 92 92 92 92 92 92 92 92 92 92 92 92 92 92 92 92 92 92 92 92 92 92 92 92 92 92 92 92 92 92 92 92 92 92 92 88 80 80 80 68 56 48 56 56 56 56 48 48 56 56 56 56 56 56 48 48 56 48 44 44 48 48 48
92 92 92 92 92 92 92 92 92 92 92 92 92 92 92 92 92 92 92 92 92 92 92 92 92 92 92 92 92 92 92 92 92 92 92 92 92 92 92 92 88 76 76 68 68 56 44 48 48 56 48 48 44 48 56 48 48 48 56 56 48 48 48 36 48 56 56 56 48
92 92 92 92 92 92 92 92 92 92 92 92 92 92 92 92 92 92 92 92 92 92 92 92 92 92 92 92 92 92 92 92 92 92 92 92 88 80 80 88 64 56 64 76 64 48 36 36 48 48 48 44 48 48 48 56 48 56 64 56 64 56 56 56 56 56 56 48 44
92 92 92 92 92 92 92 92 92 92 92 92 92 92 92 92 92 92 92 92 92 92 92 92 92 92 92 92 92 92 92 92 92 92 92 92 76 76 68 56 44 48 68 68 64 48 44 56 56 48 44 44 48 56 56 56 64 68 68 64 64 56 64 64 56 48 48 48 44
92 92 92 92 92 92 92 92 92 92 92 92 92 92 92 92 92 92 92 92 92 92 92 92 92 92 92 92 92 92 92 92 92 92 92 92 80 76 64 56 56 68 80 80 68 64 48 56 48 44 44 56 64 68 64 64 76 68 64 64 68 68 64 64 56 48 44 48 44
88 88 88 88 92 92 92 92 92 92 92 92 92 92 92 92 92 92 92 92 92 92 92 92 92 92 92 92 92 92 92 92 92 92 92 92 92 88 88 80 76 80 80 76 68 64 56 48 48 48 48 64 68 68 68 76 68 68 68 76 68 68 64 56 48 44 44 48 36
88 80 76 76 80 88 92 88 88 92 92 92 92 92 92 92 92 92 92 92 92 92 92 92 92 92 92 92 92 92 92 92 92 88 88 92 92 92 92 92 88 80 68 68 68 68 64 64 64 68 76 76 76 76 76 76 76 76 76 68 68 64 56 48 48 44 36 36 24
88 80 68 76 80 88 88 92 88 92 92 92 92 92 92 92 92 92 92 92 92 92 92 92 92 92 92 92 92 92 92 92 92 88 88 88 88 88 92 92 88 80 80 76 80 80 80 80 80 80 80 80 80 80 80 76 80 80 76 68 64 56 56 48 44 44 48 56 44
92 88 80 80 80 80 88 92 92 92 88 88 92 92 92 92 92 92 92 92 92 92 92 92 92 92 92 92 92 92 92 92 92 92 92 88 88 88 92 92 92 92 92 92 88 88 80 80 80 80 80 80 80 80 76 76 76 76 68 56 64 48 48 56 48 48 56 68 68
92 92 92 88 88 88 92 92 92 92 88 88 92 92 92 92 92 92 92 92 92 92 92 92 92 92 92 92 92 92 92 92 92 92 92 92 92 92 92 92 92 92 92 92 80 76 76 76 76 76 80 80 80 76 68 68 68 68 64 64 56 48 44 56 56 64 76 68 76